Wind From: 11-12-2017 10:04 Until: 12-12-2017 06:00 warning for: Wind Level: Orange info button

Power and phone distribution networks may be disrupted for relatively long periods., Roofs and chimneys can be damaged. , Tree branches may break. , Vehicles can be deported. , Traffic may be disrupted, particularly on secondary roads in forest areas. Limit your trips. , Limit your speed in highway driving, especially if you drive a vehicle or hitch sensitive to wind. , Do not go for walks in forests or along the coast., In town, be vigilant against possible falling objects., Do not work on roofs and do not touch any electrical line fallen on the ground., Store or secure sensitive objects to wind or likely to be damaged., Always install power generators outside buildings. 


Meteo18 Weather Cam more information Meteo18 Weather Cam


Thunder radar more information blitzortung!


Rain radar more information rain snow radar


Visit our other weather sites:

Template documentation
and downloads

And another site



Weather Underground History page Text

Daily Summary for November 17, 2016 Units:  Metric    English   Both
« Previous Day
Next Day »
Daily Weekly Monthly Yearly Custom
  High: Low: Average:
Temperature: 11.7 °C 9.9 °C 10.7 °C
Dew Point: 10.5 °C 9.4 °C 9.9 °C
Humidity: 98 % 91 % 95 %
Wind Speed: 33.8 km/h 4.8 km/h 14.8 km/h
Wind Gust: 38.6 km/h - -
Wind:- - SW
Pressure: 1020.9 hPa 1008.0 hPa -
Precipitation: 4.8 mm    
Historical Graphs
 
 
Tabular Data for November 17, 2016
Time Temperature Dew Point Pressure Wind Wind Speed Wind Gust Humidity Rainfall Rate (Hourly)
00:02 10.4 °C 9.9 °C 1020.9 hPa WSW 11.3 km/h 25.7 km/h 97 % 0.3 mm
00:07 10.3 °C 9.8 °C 1020.9 hPa WSW 20.9 km/h 25.7 km/h 97 % 0.3 mm
00:12 10.3 °C 9.8 °C 1020.9 hPa SW 14.5 km/h 25.7 km/h 97 % 0.3 mm
00:17 10.3 °C 9.8 °C 1020.9 hPa WSW 24.1 km/h 25.7 km/h 97 % 0.3 mm
00:22 10.3 °C 9.8 °C 1020.9 hPa WSW 11.3 km/h 27.4 km/h 97 % 0.3 mm
00:32 10.2 °C 9.7 °C 1020.5 hPa WSW 12.9 km/h 27.4 km/h 97 % 0.3 mm
00:37 10.2 °C 9.7 °C 1020.5 hPa West 9.7 km/h 20.9 km/h 97 % 0.3 mm
00:42 10.2 °C 9.7 °C 1020.5 hPa SW 11.3 km/h 20.9 km/h 97 % 0.3 mm
00:52 10.2 °C 9.7 °C 1020.5 hPa SSW 8.0 km/h 25.7 km/h 97 % 0.3 mm
00:57 10.2 °C 9.7 °C 1020.5 hPa SW 12.9 km/h 29.0 km/h 97 % 0.3 mm
01:02 10.1 °C 9.6 °C 1020.5 hPa SW 8.0 km/h 29.0 km/h 97 % 0.3 mm
01:07 10.1 °C 9.6 °C 1020.2 hPa SW 9.7 km/h 22.5 km/h 97 % 0.3 mm
01:12 10.1 °C 9.6 °C 1020.2 hPa SW 12.9 km/h 22.5 km/h 97 % 0.3 mm
01:17 10.1 °C 9.6 °C 1020.2 hPa WSW 8.0 km/h 24.1 km/h 97 % 0.3 mm
01:22 10.0 °C 9.5 °C 1020.2 hPa WSW 17.7 km/h 24.1 km/h 97 % 0.3 mm
01:27 10.1 °C 9.6 °C 1020.2 hPa WSW 8.0 km/h 24.1 km/h 97 % 0.3 mm
01:32 10.0 °C 9.5 °C 1019.9 hPa SW 6.4 km/h 27.4 km/h 97 % 0.3 mm
01:37 10.0 °C 9.5 °C 1019.9 hPa SW 22.5 km/h 27.4 km/h 97 % 0.3 mm
01:42 10.0 °C 9.5 °C 1019.9 hPa SW 9.7 km/h 27.4 km/h 97 % 0.0 mm
01:47 9.9 °C 9.4 °C 1019.9 hPa WSW 22.5 km/h 22.5 km/h 97 % 0.0 mm
01:52 9.9 °C 9.4 °C 1019.5 hPa WSW 4.8 km/h 24.1 km/h 97 % 0.0 mm
01:57 9.9 °C 9.4 °C 1019.5 hPa SW 16.1 km/h 24.1 km/h 97 % 0.0 mm
02:02 9.9 °C 9.4 °C 1019.5 hPa SW 24.1 km/h 24.1 km/h 97 % 0.0 mm
02:07 9.9 °C 9.4 °C 1019.5 hPa WSW 14.5 km/h 24.1 km/h 97 % 0.0 mm
02:12 9.9 °C 9.4 °C 1019.5 hPa WSW 6.4 km/h 27.4 km/h 97 % 0.0 mm
02:17 9.9 °C 9.4 °C 1019.5 hPa WSW 17.7 km/h 27.4 km/h 97 % 0.3 mm
02:22 9.9 °C 9.4 °C 1019.5 hPa WSW 17.7 km/h 27.4 km/h 97 % 0.3 mm
02:32 9.9 °C 9.4 °C 1019.5 hPa SSW 4.8 km/h 25.7 km/h 97 % 0.3 mm
02:37 9.9 °C 9.4 °C 1019.5 hPa SW 4.8 km/h 25.7 km/h 97 % 0.5 mm
02:42 10.0 °C 9.5 °C 1019.5 hPa SW 9.7 km/h 25.7 km/h 97 % 0.5 mm
02:47 10.0 °C 9.5 °C 1019.5 hPa SW 12.9 km/h 25.7 km/h 97 % 0.5 mm
02:52 10.0 °C 9.5 °C 1019.5 hPa West 17.7 km/h 25.7 km/h 97 % 0.5 mm
02:57 10.0 °C 9.5 °C 1019.2 hPa SW 17.7 km/h 24.1 km/h 97 % 0.5 mm
03:02 10.0 °C 9.5 °C 1019.2 hPa SW 9.7 km/h 24.1 km/h 97 % 0.5 mm
03:07 10.0 °C 9.5 °C 1019.2 hPa WSW 12.9 km/h 24.1 km/h 97 % 0.5 mm
03:12 10.0 °C 9.5 °C 1019.2 hPa WSW 17.7 km/h 20.9 km/h 97 % 0.5 mm
03:17 10.0 °C 9.5 °C 1019.2 hPa WSW 12.9 km/h 22.5 km/h 97 % 0.5 mm
03:22 10.0 °C 9.5 °C 1019.2 hPa SW 16.1 km/h 24.1 km/h 97 % 0.5 mm
03:27 10.0 °C 9.5 °C 1018.8 hPa SW 9.7 km/h 24.1 km/h 97 % 0.5 mm
03:32 10.0 °C 9.5 °C 1018.8 hPa WSW 8.0 km/h 24.1 km/h 97 % 0.5 mm
03:47 10.1 °C 9.6 °C 1018.5 hPa SSW 12.9 km/h 24.1 km/h 97 % 0.5 mm
03:57 10.1 °C 9.6 °C 1018.5 hPa SW 16.1 km/h 24.1 km/h 97 % 0.3 mm
04:02 10.1 °C 9.6 °C 1018.5 hPa SSW 12.9 km/h 22.5 km/h 97 % 0.3 mm
04:12 10.1 °C 9.6 °C 1018.5 hPa SW 8.0 km/h 24.1 km/h 97 % 0.5 mm
04:17 10.1 °C 9.6 °C 1018.5 hPa WSW 19.3 km/h 24.1 km/h 97 % 0.5 mm
04:27 10.1 °C 9.6 °C 1018.2 hPa SW 14.5 km/h 24.1 km/h 97 % 0.5 mm
04:32 10.1 °C 9.6 °C 1018.2 hPa SW 8.0 km/h 24.1 km/h 97 % 0.5 mm
04:37 10.1 °C 9.6 °C 1018.2 hPa WSW 11.3 km/h 22.5 km/h 97 % 0.5 mm
04:42 10.1 °C 9.6 °C 1018.2 hPa SW 6.4 km/h 20.9 km/h 97 % 0.5 mm
04:47 10.1 °C 9.6 °C 1018.2 hPa West 14.5 km/h 20.9 km/h 97 % 0.5 mm
04:52 10.1 °C 9.6 °C 1017.8 hPa WSW 9.7 km/h 20.9 km/h 97 % 0.5 mm
04:57 10.1 °C 9.6 °C 1017.8 hPa SW 8.0 km/h 22.5 km/h 97 % 0.5 mm
05:02 10.1 °C 9.6 °C 1017.8 hPa WSW 8.0 km/h 22.5 km/h 97 % 0.5 mm
05:12 10.2 °C 9.7 °C 1017.8 hPa West 9.7 km/h 22.5 km/h 97 % 0.5 mm
05:17 10.2 °C 9.7 °C 1017.8 hPa WSW 12.9 km/h 29.0 km/h 97 % 0.5 mm
05:22 10.2 °C 9.7 °C 1017.8 hPa West 16.1 km/h 29.0 km/h 97 % 0.5 mm
05:32 10.2 °C 9.7 °C 1017.8 hPa WSW 14.5 km/h 25.7 km/h 97 % 0.5 mm
05:42 10.2 °C 9.7 °C 1017.8 hPa SW 11.3 km/h 25.7 km/h 97 % 0.5 mm
05:47 10.2 °C 9.7 °C 1017.8 hPa SSW 16.1 km/h 25.7 km/h 97 % 0.3 mm
05:57 10.2 °C 9.7 °C 1017.8 hPa SW 9.7 km/h 24.1 km/h 97 % 0.3 mm
06:02 10.2 °C 9.7 °C 1017.8 hPa West 9.7 km/h 24.1 km/h 97 % 0.3 mm
06:12 10.2 °C 9.7 °C 1017.8 hPa SW 12.9 km/h 22.5 km/h 97 % 0.3 mm
06:17 10.2 °C 9.7 °C 1017.5 hPa SW 12.9 km/h 22.5 km/h 97 % 0.0 mm
06:22 10.2 °C 9.7 °C 1017.5 hPa WSW 9.7 km/h 22.5 km/h 97 % 0.0 mm
06:27 10.2 °C 9.7 °C 1017.5 hPa SW 8.0 km/h 24.1 km/h 97 % 0.3 mm
06:32 10.2 °C 9.7 °C 1017.5 hPa SW 19.3 km/h 24.1 km/h 97 % 0.3 mm
06:42 10.2 °C 9.7 °C 1017.5 hPa SW 14.5 km/h 24.1 km/h 97 % 0.3 mm
06:47 10.2 °C 9.7 °C 1017.5 hPa SW 11.3 km/h 24.1 km/h 97 % 0.3 mm
06:52 10.2 °C 9.7 °C 1017.5 hPa SW 14.5 km/h 24.1 km/h 97 % 0.3 mm
06:57 10.2 °C 9.7 °C 1017.5 hPa SW 17.7 km/h 22.5 km/h 97 % 0.5 mm
07:02 10.2 °C 9.7 °C 1017.5 hPa South 8.0 km/h 22.5 km/h 97 % 0.5 mm
07:12 10.2 °C 9.7 °C 1017.2 hPa SW 9.7 km/h 22.5 km/h 97 % 0.5 mm
07:22 10.2 °C 9.7 °C 1017.2 hPa SW 12.9 km/h 22.5 km/h 97 % 0.5 mm
07:27 10.2 °C 9.9 °C 1017.5 hPa South 6.4 km/h 24.1 km/h 98 % 0.3 mm
07:32 10.2 °C 9.9 °C 1017.2 hPa SW 17.7 km/h 24.1 km/h 98 % 0.3 mm
07:37 10.2 °C 9.9 °C 1017.2 hPa SW 11.3 km/h 22.5 km/h 98 % 0.3 mm
07:42 10.2 °C 9.9 °C 1017.2 hPa SW 14.5 km/h 22.5 km/h 98 % 0.3 mm
07:52 10.2 °C 9.9 °C 1017.2 hPa SSW 11.3 km/h 25.7 km/h 98 % 0.5 mm
07:57 10.2 °C 9.9 °C 1017.2 hPa SSW 16.1 km/h 27.4 km/h 98 % 0.3 mm
08:02 10.2 °C 9.9 °C 1017.2 hPa SW 22.5 km/h 27.4 km/h 98 % 0.3 mm
08:12 10.2 °C 9.9 °C 1017.2 hPa SW 16.1 km/h 27.4 km/h 98 % 0.3 mm
08:22 10.2 °C 9.9 °C 1016.8 hPa SW 17.7 km/h 27.4 km/h 98 % 0.3 mm
08:32 10.3 °C 9.8 °C 1017.2 hPa SSW 14.5 km/h 30.6 km/h 97 % 0.3 mm
08:42 10.3 °C 9.8 °C 1017.2 hPa SW 19.3 km/h 29.0 km/h 97 % 0.3 mm
08:52 10.3 °C 9.8 °C 1017.2 hPa WSW 16.1 km/h 27.4 km/h 97 % 0.3 mm
08:57 10.3 °C 9.8 °C 1017.2 hPa SW 16.1 km/h 32.2 km/h 97 % 0.3 mm
09:02 10.3 °C 9.8 °C 1017.2 hPa WSW 20.9 km/h 32.2 km/h 97 % 0.3 mm
09:12 10.4 °C 9.9 °C 1017.2 hPa SW 17.7 km/h 27.4 km/h 97 % 0.3 mm
09:17 10.4 °C 9.9 °C 1017.2 hPa WSW 14.5 km/h 29.0 km/h 97 % 0.3 mm
09:22 10.4 °C 9.9 °C 1017.2 hPa WSW 9.7 km/h 29.0 km/h 97 % 0.3 mm
09:32 10.4 °C 9.9 °C 1017.2 hPa SW 11.3 km/h 32.2 km/h 97 % 0.5 mm
09:47 10.4 °C 9.9 °C 1017.2 hPa SSW 12.9 km/h 25.7 km/h 97 % 0.5 mm
09:52 10.4 °C 9.9 °C 1016.8 hPa SW 17.7 km/h 25.7 km/h 97 % 0.5 mm
10:02 10.4 °C 9.9 °C 1016.8 hPa SSW 11.3 km/h 33.8 km/h 97 % 0.5 mm
10:12 10.4 °C 9.9 °C 1016.8 hPa WSW 17.7 km/h 27.4 km/h 97 % 0.5 mm
10:22 10.4 °C 9.9 °C 1016.8 hPa WSW 17.7 km/h 27.4 km/h 97 % 0.5 mm
10:32 10.6 °C 10.1 °C 1016.5 hPa SSW 12.9 km/h 33.8 km/h 97 % 0.5 mm
10:42 10.7 °C 10.2 °C 1016.8 hPa SSW 17.7 km/h 35.4 km/h 97 % 0.5 mm
10:52 10.7 °C 10.2 °C 1016.8 hPa SW 14.5 km/h 33.8 km/h 97 % 0.5 mm
10:57 10.7 °C 10.2 °C 1016.8 hPa SW 19.3 km/h 30.6 km/h 97 % 0.5 mm
11:02 10.8 °C 10.3 °C 1016.8 hPa WSW 27.4 km/h 30.6 km/h 97 % 0.5 mm
11:12 10.9 °C 10.3 °C 1016.8 hPa SW 14.5 km/h 35.4 km/h 96 % 0.3 mm
11:17 10.9 °C 10.3 °C 1016.8 hPa West 4.8 km/h 35.4 km/h 96 % 0.3 mm
11:22 10.9 °C 10.3 °C 1016.5 hPa SSW 9.7 km/h 35.4 km/h 96 % 0.3 mm
11:32 10.9 °C 10.3 °C 1016.5 hPa WSW 16.1 km/h 30.6 km/h 96 % 0.3 mm
11:37 10.9 °C 10.3 °C 1016.5 hPa SSW 9.7 km/h 32.2 km/h 96 % 0.0 mm
11:42 11.0 °C 10.2 °C 1016.5 hPa West 14.5 km/h 30.6 km/h 95 % 0.0 mm
11:52 11.1 °C 10.3 °C 1016.1 hPa SW 12.9 km/h 29.0 km/h 95 % 0.0 mm
12:02 11.2 °C 10.3 °C 1016.1 hPa WSW 14.5 km/h 29.0 km/h 94 % 0.0 mm
12:07 11.2 °C 10.3 °C 1016.1 hPa WSW 12.9 km/h 27.4 km/h 94 % 0.0 mm
12:12 11.1 °C 10.2 °C 1016.1 hPa SW 14.5 km/h 27.4 km/h 94 % 0.0 mm
12:17 11.1 °C 10.2 °C 1016.1 hPa WNW 11.3 km/h 27.4 km/h 94 % 0.0 mm
12:22 11.1 °C 10.2 °C 1016.1 hPa SW 8.0 km/h 27.4 km/h 94 % 0.0 mm
12:27 11.2 °C 10.3 °C 1015.8 hPa WSW 14.5 km/h 27.4 km/h 94 % 0.0 mm
12:32 11.1 °C 10.3 °C 1015.8 hPa West 4.8 km/h 25.7 km/h 95 % 0.0 mm
12:37 11.1 °C 10.3 °C 1015.8 hPa West 8.0 km/h 25.7 km/h 95 % 0.0 mm
12:42 11.1 °C 10.3 °C 1015.5 hPa SW 19.3 km/h 25.7 km/h 95 % 0.0 mm
12:47 11.0 °C 10.4 °C 1015.5 hPa WSW 6.4 km/h 22.5 km/h 96 % 0.0 mm
12:52 10.9 °C 10.3 °C 1015.5 hPa SW 17.7 km/h 25.7 km/h 96 % 0.0 mm
12:57 10.9 °C 10.3 °C 1015.5 hPa WSW 12.9 km/h 25.7 km/h 96 % 0.0 mm
13:02 10.9 °C 10.3 °C 1015.5 hPa SW 9.7 km/h 25.7 km/h 96 % 0.0 mm
13:07 10.9 °C 10.3 °C 1015.5 hPa SW 19.3 km/h 32.2 km/h 96 % 0.0 mm
13:12 10.9 °C 10.3 °C 1015.5 hPa SW 19.3 km/h 32.2 km/h 96 % 0.0 mm
13:17 10.9 °C 10.3 °C 1015.5 hPa WSW 9.7 km/h 30.6 km/h 96 % 0.0 mm
13:22 10.9 °C 10.3 °C 1015.1 hPa SW 19.3 km/h 29.0 km/h 96 % 0.3 mm
13:32 10.9 °C 10.3 °C 1015.1 hPa WSW 14.5 km/h 29.0 km/h 96 % 0.3 mm
13:37 10.9 °C 10.3 °C 1015.1 hPa WSW 9.7 km/h 25.7 km/h 96 % 0.3 mm
13:42 10.9 °C 10.3 °C 1015.1 hPa SW 8.0 km/h 25.7 km/h 96 % 0.3 mm
13:47 10.9 °C 10.1 °C 1015.1 hPa SSW 11.3 km/h 24.1 km/h 95 % 0.3 mm
13:52 11.0 °C 10.2 °C 1015.1 hPa West 8.0 km/h 24.1 km/h 95 % 0.3 mm
13:57 11.0 °C 10.2 °C 1015.1 hPa WSW 8.0 km/h 24.1 km/h 95 % 0.3 mm
14:02 11.1 °C 10.3 °C 1014.8 hPa WSW 19.3 km/h 24.1 km/h 95 % 0.3 mm
14:07 11.1 °C 10.3 °C 1014.8 hPa WSW 25.7 km/h 25.7 km/h 95 % 0.3 mm
14:12 11.1 °C 10.3 °C 1014.8 hPa WSW 19.3 km/h 27.4 km/h 95 % 0.3 mm
14:17 11.2 °C 10.3 °C 1014.8 hPa SSW 19.3 km/h 29.0 km/h 94 % 0.0 mm
14:22 11.3 °C 10.4 °C 1014.4 hPa WSW 8.0 km/h 29.0 km/h 94 % 0.0 mm
14:27 11.4 °C 10.1 °C 1014.4 hPa West 9.7 km/h 29.0 km/h 92 % 0.0 mm
14:32 11.4 °C 10.1 °C 1014.4 hPa SW 11.3 km/h 29.0 km/h 92 % 0.0 mm
14:37 11.4 °C 10.0 °C 1014.4 hPa SW 9.7 km/h 25.7 km/h 91 % 0.0 mm
14:42 11.4 °C 10.1 °C 1014.4 hPa SW 4.8 km/h 24.1 km/h 92 % 0.0 mm
14:47 11.6 °C 10.2 °C 1014.1 hPa SW 9.7 km/h 24.1 km/h 91 % 0.0 mm
14:52 11.6 °C 10.2 °C 1014.1 hPa SSW 14.5 km/h 20.9 km/h 91 % 0.0 mm
14:57 11.7 °C 10.4 °C 1013.8 hPa SSW 11.3 km/h 20.9 km/h 92 % 0.0 mm
15:02 11.6 °C 10.3 °C 1013.8 hPa SW 25.7 km/h 25.7 km/h 92 % 0.0 mm
15:07 11.5 °C 10.4 °C 1013.8 hPa SW 14.5 km/h 25.7 km/h 93 % 0.0 mm
15:12 11.4 °C 10.3 °C 1013.8 hPa SSW 9.7 km/h 25.7 km/h 93 % 0.0 mm
15:17 11.4 °C 10.3 °C 1013.8 hPa SSW 14.5 km/h 25.7 km/h 93 % 0.0 mm
15:22 11.3 °C 10.4 °C 1013.4 hPa SW 14.5 km/h 24.1 km/h 94 % 0.0 mm
15:27 11.3 °C 10.4 °C 1013.4 hPa South 16.1 km/h 24.1 km/h 94 % 0.0 mm
15:32 11.3 °C 10.4 °C 1013.4 hPa SW 8.0 km/h 24.1 km/h 94 % 0.0 mm
15:37 11.3 °C 10.5 °C 1013.1 hPa SSW 8.0 km/h 22.5 km/h 95 % 0.0 mm
15:42 11.2 °C 10.4 °C 1013.1 hPa SSW 11.3 km/h 22.5 km/h 95 % 0.0 mm
15:47 11.1 °C 10.3 °C 1013.1 hPa SW 9.7 km/h 22.5 km/h 95 % 0.0 mm
15:52 11.1 °C 10.5 °C 1013.1 hPa SW 14.5 km/h 22.5 km/h 96 % 0.0 mm
15:57 11.1 °C 10.5 °C 1013.1 hPa SW 9.7 km/h 22.5 km/h 96 % 0.0 mm
16:02 11.0 °C 10.4 °C 1013.1 hPa SSW 9.7 km/h 22.5 km/h 96 % 0.0 mm
16:07 10.9 °C 10.3 °C 1012.8 hPa South 9.7 km/h 20.9 km/h 96 % 0.0 mm
16:12 10.8 °C 10.2 °C 1012.8 hPa SSW 17.7 km/h 22.5 km/h 96 % 0.0 mm
16:17 10.8 °C 10.2 °C 1012.8 hPa SSE 16.1 km/h 22.5 km/h 96 % 0.0 mm
16:22 10.8 °C 10.2 °C 1012.8 hPa SSW 8.0 km/h 22.5 km/h 96 % 0.0 mm
16:32 10.9 °C 10.3 °C 1012.8 hPa SSW 9.7 km/h 20.9 km/h 96 % 0.0 mm
16:37 11.0 °C 10.2 °C 1012.8 hPa South 12.9 km/h 22.5 km/h 95 % 0.0 mm
16:47 11.0 °C 10.2 °C 1012.8 hPa SSW 17.7 km/h 24.1 km/h 95 % 0.0 mm
16:52 11.1 °C 10.3 °C 1012.4 hPa SSW 16.1 km/h 24.1 km/h 95 % 0.0 mm
16:57 11.0 °C 10.2 °C 1012.4 hPa SSW 11.3 km/h 24.1 km/h 95 % 0.3 mm
17:02 11.0 °C 10.2 °C 1012.4 hPa SSW 16.1 km/h 24.1 km/h 95 % 0.3 mm
17:12 10.9 °C 10.3 °C 1012.4 hPa SSE 16.1 km/h 25.7 km/h 96 % 0.5 mm
17:17 10.8 °C 10.2 °C 1012.1 hPa SSW 16.1 km/h 25.7 km/h 96 % 0.5 mm
17:22 10.8 °C 10.3 °C 1012.1 hPa SW 9.7 km/h 24.1 km/h 97 % 0.5 mm
17:27 10.8 °C 10.3 °C 1012.1 hPa SW 16.1 km/h 24.1 km/h 97 % 0.5 mm
17:32 10.8 °C 10.2 °C 1012.1 hPa SSW 19.3 km/h 24.1 km/h 96 % 0.5 mm
17:37 10.7 °C 10.1 °C 1012.1 hPa SSW 17.7 km/h 27.4 km/h 96 % 0.5 mm
17:42 10.7 °C 10.1 °C 1011.7 hPa SW 9.7 km/h 27.4 km/h 96 % 0.5 mm
17:52 10.8 °C 10.2 °C 1011.4 hPa SW 14.5 km/h 27.4 km/h 96 % 0.5 mm
17:57 10.8 °C 10.0 °C 1011.4 hPa SSW 20.9 km/h 27.4 km/h 95 % 0.5 mm
18:02 10.9 °C 10.0 °C 1011.4 hPa SSW 14.5 km/h 27.4 km/h 94 % 0.3 mm
18:07 10.9 °C 10.0 °C 1011.4 hPa SW 24.1 km/h 27.4 km/h 94 % 0.3 mm
18:12 11.0 °C 10.1 °C 1011.4 hPa SW 17.7 km/h 29.0 km/h 94 % 0.0 mm
18:17 10.9 °C 10.0 °C 1011.4 hPa SW 17.7 km/h 29.0 km/h 94 % 0.0 mm
18:22 11.0 °C 9.9 °C 1011.1 hPa SW 20.9 km/h 29.0 km/h 93 % 0.0 mm
18:27 11.1 °C 10.0 °C 1011.1 hPa SW 11.3 km/h 29.0 km/h 93 % 0.0 mm
18:32 11.1 °C 9.8 °C 1011.1 hPa SSW 14.5 km/h 29.0 km/h 92 % 0.3 mm
18:42 11.1 °C 9.8 °C 1011.1 hPa South 11.3 km/h 27.4 km/h 92 % 0.3 mm
18:47 11.2 °C 9.9 °C 1011.1 hPa South 14.5 km/h 27.4 km/h 92 % 0.3 mm
18:52 11.2 °C 9.9 °C 1011.1 hPa SSW 22.5 km/h 32.2 km/h 92 % 0.3 mm
18:57 11.1 °C 9.8 °C 1011.1 hPa SW 22.5 km/h 37.0 km/h 92 % 0.3 mm
19:02 11.1 °C 10.0 °C 1010.7 hPa SSW 12.9 km/h 37.0 km/h 93 % 0.3 mm
19:12 11.1 °C 10.0 °C 1010.7 hPa SW 19.3 km/h 35.4 km/h 93 % 0.3 mm
19:17 11.1 °C 10.0 °C 1010.7 hPa SSW 20.9 km/h 35.4 km/h 93 % 0.3 mm
19:22 11.1 °C 9.8 °C 1010.7 hPa SSW 20.9 km/h 29.0 km/h 92 % 0.0 mm
19:27 11.2 °C 9.9 °C 1010.7 hPa SW 14.5 km/h 29.0 km/h 92 % 0.0 mm
19:32 11.2 °C 9.9 °C 1010.4 hPa SW 27.4 km/h 29.0 km/h 92 % 0.0 mm
19:37 11.2 °C 9.9 °C 1010.7 hPa SSW 14.5 km/h 30.6 km/h 92 % 0.0 mm
19:47 11.1 °C 10.0 °C 1010.7 hPa SW 30.6 km/h 30.6 km/h 93 % 0.0 mm
19:52 10.9 °C 10.0 °C 1010.7 hPa SW 24.1 km/h 30.6 km/h 94 % 0.0 mm
20:02 10.7 °C 9.9 °C 1010.7 hPa WSW 22.5 km/h 30.6 km/h 95 % 0.0 mm
20:07 10.7 °C 9.9 °C 1010.7 hPa SSW 14.5 km/h 35.4 km/h 95 % 0.0 mm
20:12 10.7 °C 10.1 °C 1010.7 hPa SW 16.1 km/h 35.4 km/h 96 % 0.0 mm
20:17 10.7 °C 9.9 °C 1010.7 hPa SW 12.9 km/h 35.4 km/h 95 % 0.0 mm
20:22 10.8 °C 10.0 °C 1010.7 hPa SW 17.7 km/h 29.0 km/h 95 % 0.3 mm
20:32 10.9 °C 10.0 °C 1010.7 hPa WSW 12.9 km/h 29.0 km/h 94 % 0.3 mm
20:42 10.9 °C 10.0 °C 1010.4 hPa WSW 17.7 km/h 25.7 km/h 94 % 0.3 mm
20:52 10.8 °C 9.9 °C 1010.4 hPa SW 17.7 km/h 25.7 km/h 94 % 0.3 mm
20:57 10.9 °C 10.0 °C 1010.0 hPa SW 12.9 km/h 24.1 km/h 94 % 0.3 mm
21:07 10.9 °C 9.8 °C 1010.0 hPa SW 19.3 km/h 30.6 km/h 93 % 0.3 mm
21:12 10.9 °C 9.8 °C 1010.0 hPa SSW 19.3 km/h 32.2 km/h 93 % 0.3 mm
21:17 10.9 °C 9.8 °C 1010.0 hPa SSW 11.3 km/h 33.8 km/h 93 % 0.3 mm
21:27 10.9 °C 9.8 °C 1009.7 hPa SW 29.0 km/h 32.2 km/h 93 % 0.0 mm
21:37 10.9 °C 9.8 °C 1009.7 hPa SW 22.5 km/h 35.4 km/h 93 % 0.0 mm
21:42 10.9 °C 9.8 °C 1009.7 hPa SW 25.7 km/h 32.2 km/h 93 % 0.0 mm
21:47 10.9 °C 10.0 °C 1009.7 hPa SW 14.5 km/h 35.4 km/h 94 % 0.0 mm
21:57 10.8 °C 9.9 °C 1009.7 hPa SW 16.1 km/h 35.4 km/h 94 % 0.0 mm
22:07 10.8 °C 9.9 °C 1009.4 hPa SSW 16.1 km/h 32.2 km/h 94 % 0.0 mm
22:12 10.9 °C 9.8 °C 1009.4 hPa SSW 16.1 km/h 32.2 km/h 93 % 0.0 mm
22:22 11.1 °C 9.8 °C 1009.4 hPa SW 20.9 km/h 33.8 km/h 92 % 0.0 mm
22:32 11.2 °C 9.8 °C 1009.0 hPa South 19.3 km/h 33.8 km/h 91 % 0.0 mm
22:42 11.2 °C 9.8 °C 1009.0 hPa SW 22.5 km/h 32.2 km/h 91 % 0.0 mm
22:47 11.1 °C 9.7 °C 1009.0 hPa SW 19.3 km/h 30.6 km/h 91 % 0.0 mm
22:52 10.9 °C 9.8 °C 1008.7 hPa SSW 16.1 km/h 30.6 km/h 93 % 0.3 mm
22:57 10.7 °C 9.8 °C 1009.0 hPa SW 24.1 km/h 32.2 km/h 94 % 0.3 mm
23:02 10.7 °C 9.8 °C 1008.7 hPa SSW 17.7 km/h 32.2 km/h 94 % 0.3 mm
23:07 10.6 °C 9.8 °C 1008.7 hPa WSW 33.8 km/h 33.8 km/h 95 % 0.3 mm
23:12 10.7 °C 9.8 °C 1008.7 hPa SW 24.1 km/h 37.0 km/h 94 % 0.3 mm
23:17 10.8 °C 9.9 °C 1008.4 hPa SW 16.1 km/h 37.0 km/h 94 % 0.3 mm
23:22 10.9 °C 9.8 °C 1008.4 hPa SW 16.1 km/h 35.4 km/h 93 % 0.3 mm
23:32 11.1 °C 9.8 °C 1008.0 hPa SSW 24.1 km/h 33.8 km/h 92 % 0.3 mm
23:37 11.2 °C 9.9 °C 1008.0 hPa SSW 29.0 km/h 38.6 km/h 92 % 0.3 mm
23:42 11.2 °C 9.8 °C 1008.0 hPa SW 25.7 km/h 38.6 km/h 91 % 0.3 mm
23:47 11.2 °C 9.9 °C 1008.0 hPa SSW 17.7 km/h 38.6 km/h 92 % 0.3 mm
23:52 11.2 °C 9.9 °C 1008.0 hPa SSW 17.7 km/h 35.4 km/h 92 % 0.0 mm
23:57 11.2 °C 9.9 °C 1008.0 hPa SW 22.5 km/h 37.0 km/h 92 % 0.0 mm
Meteo18
Compliments of Weather Underground - 4 mb

Script developed by  Jim McMurry - jmcmurry@mwt.net Adapted for the template by  Wim van der Kuil - Leuven-Template.eu

You find our weather info also at:

European Weather Network

Weather Underground

Equipment we use:

Weather-station
Davis Vue

Weather-program
Meteohub

Weather-server
Raspberry PI 2 B+

Provider
1 and 1

Davis Vue

Meteohub

Raspberry PI 2 B+

1 and 1